Content
SEND FEEDBACK

Daily
Averages
Monthly
Summary
United States of America

GERLACH, OKLAHOMA


Home > North America > United States > Oklahoma
Elevation: 604 meters     Latitude: 36 25N     Longitude: 099 24W

WEATHER
 
SELECT A DAY
Number of Records: 43,734;   Date Range: 9/1/12 - 7/26/14
 
SHARE

PRINT THIS DATA

[ ← Previous Day ]
WEATHER ALMANAC - 13 FEBRUARY, 2013
[ Next Day → ]
[ °F ]   °C
Weather ElementAverageHighLow
Temperature-0.8 °C7 °C (3:55 pm)-8 °C (7:15 am)
Dewpoint-4.1 °C0 °C (2:55 pm)-10 °C (6:55 am)
Humidity79.4 %93 % (12:35 am)57 % (5:35 pm)
Barometer1016.6 hPa1018.3 hPa (12:35 am)1014.6 hPa (5:35 pm)
Wind Speed15.3 km/h20.4 km/h (8:55 pm)
Weather ElementAverage
Visibility16.1 km
Wind DirectionSW (226.2 °)

Weather ElementTotal
Precipitation---
Heating Degree Days18.8 (Base 18.3)
Averaged from 71 records on 13 February, 2013
WEATHER CONDITIONS BREAKOUT
WIND DIRECTION BREAKOUT
WEATHER BY HOUR - 13 FEBRUARY, 2013
[ °F ]   °C
Local TimeTemperatureDewpointHumidityBarometerVisibilityWind DirectionWind SpeedGust SpeedPrecipitationEventsConditions
12:35 AM-5 °C-6 °C93 %1018.3 hPa16.1 kmSW (230°)13 km/hClear
12:55 AM-5 °C-6 °C93 %1018.3 hPa16.1 kmSW (230°)13 km/hClear
1:15 AM-5 °C-6 °C93 %1018.3 hPa16.1 kmSW (220°)13 km/hClear
1:35 AM-5 °C-6 °C93 %1017.6 hPa16.1 kmSW (220°)13 km/hClear
1:55 AM-4 °C-5 °C93 %1017.6 hPa16.1 kmSW (220°)14.8 km/hClear
2:15 AM-4 °C-5 °C93 %1017.6 hPa16.1 kmSSW (210°)16.7 km/hClear
2:35 AM-4 °C-5 °C93 %1017.3 hPa16.1 kmSW (220°)16.7 km/hClear
2:55 AM-4 °C-5 °C93 %1017.3 hPa16.1 kmSW (220°)16.7 km/hClear
3:15 AM-5 °C-6 °C93 %1017.3 hPa16.1 kmSW (230°)14.8 km/hClear
3:35 AM-5 °C-6 °C93 %1016.9 hPa16.1 kmSW (220°)14.8 km/hClear
3:55 AM-5 °C-6 °C93 %1016.6 hPa16.1 kmSW (220°)16.7 km/hClear
4:15 AM-5 °C-7 °C86 %1016.6 hPa16.1 kmSW (230°)18.5 km/hClear
4:35 AM-6 °C-7 °C93 %1016.6 hPa16.1 kmSW (220°)16.7 km/hClear
4:55 AM-6 °C-7 °C93 %1016.6 hPa16.1 kmSW (220°)16.7 km/hClear
5:15 AM-6 °C-8 °C86 %1016.6 hPa16.1 kmSW (220°)16.7 km/hClear
5:35 AM-7 °C-8 °C93 %1016.9 hPa16.1 kmSW (230°)16.7 km/hClear
5:55 AM-7 °C-9 °C86 %1016.9 hPa16.1 kmSW (220°)16.7 km/hClear
6:15 AM-7 °C-9 °C86 %1017.3 hPa16.1 kmSW (220°)14.8 km/hClear
6:35 AM-7 °C-9 °C86 %1017.3 hPa16.1 kmSW (220°)14.8 km/hClear
6:55 AM-7 °C-10 °C80 %1017.6 hPa16.1 kmSW (230°)14.8 km/hClear
7:15 AM-8 °C-10 °C86 %1017.6 hPa16.1 kmSW (230°)14.8 km/hClear
7:35 AM-8 °C-10 °C86 %1017.6 hPa16.1 kmSW (220°)13 km/hClear
7:55 AM-8 °C-10 °C86 %1017.6 hPa16.1 kmSSW (210°)13 km/hClear
8:15 AM-7 °C-8 °C93 %1017.6 hPa16.1 kmSW (220°)16.7 km/hClear
8:35 AM-6 °C-8 °C86 %1017.9 hPa16.1 kmSW (220°)16.7 km/hClear
8:55 AM-5 °C-7 °C86 %1018.3 hPa16.1 kmSW (220°)16.7 km/hClear
9:15 AM-5 °C-7 °C86 %1018.3 hPa16.1 kmSW (230°)16.7 km/hClear
9:35 AM-3 °C-6 °C80 %1018.3 hPa16.1 kmSW (220°)14.8 km/hClear
9:55 AM-2 °C-5 °C80 %1018.3 hPa16.1 kmSW (230°)14.8 km/hClear
10:15 AM-2 °C-5 °C80 %1018.3 hPa16.1 kmSW (230°)13 km/hClear
10:35 AM-1 °C-4 °C80 %1018.3 hPa16.1 kmWSW (240°)14.8 km/hClear
10:55 AM0 °C-3 °C80 %1018.3 hPa16.1 kmWSW (240°)16.7 km/hClear
11:15 AM1 °C-3 °C75 %1018.3 hPa16.1 kmWSW (250°)14.8 km/hClear
11:35 AM2 °C-3 °C70 %1018.3 hPa16.1 kmWSW (240°)11.1 km/hClear
11:55 AM2 °C-3 °C70 %1018.3 hPa16.1 kmWSW (240°)11.1 km/hClear
12:15 PM3 °C-3 °C65 %1017.9 hPa16.1 kmSW (230°)13 km/hClear
12:35 PM3 °C-2 °C70 %1017.6 hPa16.1 kmSW (230°)16.7 km/hClear
12:55 PM3 °C-1 °C75 %1016.9 hPa16.1 kmSW (220°)16.7 km/hClear
1:15 PM3 °C-1 °C75 %1016.6 hPa16.1 kmSW (220°)16.7 km/hClear
1:35 PM3 °C-1 °C75 %1016.6 hPa16.1 kmSW (220°)16.7 km/hClear
1:55 PM4 °C-1 °C70 %1016.3 hPa16.1 kmSW (220°)14.8 km/hClear
2:15 PM5 °C-1 °C65 %1016.3 hPa16.1 kmSW (230°)14.8 km/hClear
2:35 PM5 °C-1 °C65 %1015.9 hPa16.1 kmSSW (210°)13 km/hClear
2:55 PM6 °C0 °C66 %1015.9 hPa16.1 kmSW (220°)13 km/hClear
3:15 PM6 °C0 °C66 %1015.6 hPa16.1 kmWSW (240°)11.1 km/hClear
3:35 PM6 °C0 °C66 %1015.2 hPa16.1 kmSW (230°)13 km/hClear
3:55 PM7 °C0 °C61 %1015.6 hPa16.1 kmSW (230°)14.8 km/hClear
4:15 PM7 °C0 °C61 %1015.2 hPa16.1 kmSW (220°)16.7 km/hClear
4:35 PM7 °C0 °C61 %1015.2 hPa16.1 kmSW (230°)16.7 km/hClear
4:55 PM6 °C-1 °C61 %1015.2 hPa16.1 kmSW (230°)13 km/hClear
5:15 PM6 °C-1 °C61 %1014.9 hPa16.1 kmSW (230°)16.7 km/hClear
5:35 PM6 °C-2 °C57 %1014.6 hPa16.1 kmSW (230°)11.1 km/hClear
5:55 PM5 °C-2 °C61 %1014.6 hPa16.1 kmWSW (240°)11.1 km/hClear
6:15 PM3 °C-3 °C65 %1014.9 hPa16.1 kmWest (260°)13 km/hClear
6:35 PM2 °C-2 °C75 %1015.2 hPa16.1 kmWest (260°)11.1 km/hClear
6:55 PM2 °C-3 °C70 %1014.9 hPa16.1 kmWSW (240°)14.8 km/hClear
7:15 PM1 °C-3 °C75 %1014.9 hPa16.1 kmWSW (250°)11.1 km/hClear
7:35 PM1 °C-2 °C81 %1015.2 hPa16.1 kmSW (230°)13 km/hClear
7:55 PM1 °C-2 °C81 %1015.2 hPa16.1 kmSW (230°)16.7 km/hClear
8:15 PM1 °C-2 °C81 %1015.6 hPa16.1 kmSW (220°)16.7 km/hClear
8:35 PM1 °C-2 °C81 %1015.6 hPa16.1 kmSW (220°)16.7 km/hClear
8:55 PM0 °C-2 °C87 %1015.6 hPa16.1 kmSW (220°)20.4 km/hClear
9:15 PM0 °C-2 °C87 %1015.9 hPa16.1 kmSW (220°)18.5 km/hClear
9:35 PM0 °C-3 °C80 %1015.9 hPa16.1 kmSW (220°)18.5 km/hClear
9:55 PM1 °C-3 °C75 %1015.9 hPa16.1 kmSW (220°)20.4 km/hClear
10:15 PM0 °C-3 °C80 %1016.3 hPa16.1 kmSW (220°)16.7 km/hClear
10:35 PM0 °C-3 °C80 %1015.9 hPa16.1 kmSSW (210°)20.4 km/hClear
10:55 PM0 °C-3 °C80 %1015.9 hPa16.1 kmSW (220°)18.5 km/hClear
11:15 PM0 °C-3 °C80 %1016.3 hPa16.1 kmSW (220°)18.5 km/hClear
11:35 PM0 °C-3 °C80 %1016.6 hPa16.1 kmSW (220°)16.7 km/hClear
11:55 PM0 °C-3 °C80 %1016.6 hPa16.1 kmSSW (210°)18.5 km/hClear
Hourly data recorded from KWWR, located 0 kilometers away from Gerlach, Oklahoma







STORIES FROM OUR PARTNERS